Regional Weather Roundup
Issued by NWS Sioux Falls, SD

Home | Current Version | Previous Version | Text Only | Print | Product List | Glossary On
Versions: 1 2 3 4 5 6 7 8 9 10 11 12 13 14 15 16 17 18 19 20 21 22 23 24 25 26 27 28 29 30 31 32 33 34 35 36 37 38 39 40 41 42 43 44 45 46 47 48 49 50
979
ASUS43 KFSD 050602
RWRFSD

WEATHER ROUNDUP FOR SE SOUTH DAKOTA/SW MINNESOTA/NW IOWA
NATIONAL WEATHER SERVICE SIOUX FALLS SD
1200 AM CST MON DEC 05 2016

NOTE: "FAIR" INDICATES FEW OR NO CLOUDS BELOW 12,000 FEET WITH NO
SIGNIFICANT WEATHER AND OR OBSTRUCTIONS TO VISIBILITY.


SDZ038>040-050-052>070-050700-
SOUTHEAST SOUTH DAKOTA

CITY           SKY/WX    TMP DP  RH WIND       PRES   REMARKS
CHAMBERLAIN    NOT AVBL
HURON          PTCLDY    31  27  85 SE10      29.70F WCI  22
6HR MIN TEMP:  28; 6HR MAX TEMP:  34;

MADISON        MOCLDY    32  32 100 S6        29.74F WCI  26
MITCHELL       MOCLDY    33  28  81 SE9       29.72F WCI  25
6HR MIN TEMP:  30; 6HR MAX TEMP:  37;

SIOUX FALLS    MOCLDY    35  28  75 S3        29.77S
6HR MIN TEMP:  28; 6HR MAX TEMP:  37;

WINNER         CLOUDY    41  20  43 S21       29.60F
YANKTON        CLOUDY    30  25  80 SE3       29.75F
$$

MNZ071-072-080-081-089-090-097-098-050700-
SOUTHWEST MINNESOTA

CITY           SKY/WX    TMP DP  RH WIND       PRES   REMARKS
FAIRMONT       CLEAR     33  30  88 SW10      29.81F WCI  25
JACKSON        CLEAR     30  28  93 S7        29.80F WCI  23
LUVERNE        CLEAR     28  27  93 CALM      29.79S
MARSHALL       CLEAR     36  28  73 SW10      29.77R
6HR MIN TEMP:  34; 6HR MAX TEMP:  36;

MONTEVIDEO     CLEAR     27  25  93 SW5       29.77R WCI  21
PIPESTONE      PTCLDY    32  28  86 S5        29.77R WCI  27
REDWOOD FALLS  CLEAR     30  26  85 S7        29.77F WCI  23
TRACY          CLEAR     35  31  85 SW15      29.78R WCI  25
WINDOM         CLEAR     32  28  86 CALM      29.79S
WORTHINGTON    CLEAR     32  29  88 S9        29.80S WCI  24
$$

IAZ001>003-012>014-020>022-031-032-NEZ013-014-SDZ071-050700-
NORTHWEST IOWA

CITY           SKY/WX    TMP DP  RH WIND       PRES   REMARKS
CHEROKEE       CLEAR     30  30 100 S7        29.84S WCI  24
DENISON        CLEAR     32  30  93 S8        29.83F WCI  25
ESTHERVILLE    CLEAR     31  30  96 S6        29.81F WCI  25
LE MARS        PTCLDY    32  30  93 S6        29.82F WCI  26
ORANGE CITY    CLEAR     30  30 100 S7        29.79F WCI  23
SHELDON        CLEAR     30  30 100 S7        29.79S WCI  23
SIOUX CITY     CLEAR     31  30  96 SE9       29.82F WCI  23
6HR MIN TEMP:  29; 6HR MAX TEMP:  38;

SPENCER        CLEAR     32  31  96 SW15      29.82S WCI  22
6HR MIN TEMP:  30; 6HR MAX TEMP:  33;

STORM LAKE     CLEAR     32  30  93 S12       29.83F WCI  23
$$

ABBREVIATIONS USED IN REMARKS
   TC - TEMPERATURE IN CELSIUS
  WCI - WIND CHILL INDEX
   HX - HEAT INDEX
  VSB - VISIBILITY





USA.gov is the U.S. government's official web portal to all federal, state and local government web resources and services.